User: anonymous   Login
Location: Unspecified
(0.0000°N, 0.0000°E)
Time: 00:09:48
(UTC+00:00)
Language:

AOBA-VELOX 3 - Orbit

View from above orbital plane
View from above orbital plane
View from above satellite
View from above satellite

Ground track
Ground track

The orbit data is extracted from the following two-line orbital elements,

1 41935U 98067KX  17264.42504876  .00017887  00000-0  19935-3 0  9999
2 41935 051.6382 270.3668 0003136 295.7503 064.3168 15.62897967038677
Epoch (UTC): 21 September 2017 10:12:04
Eccentricity: 0.0003136
inclination: 51.6382°
perigee height: 377 km
apogee height: 381 km
right ascension of ascending node: 270.3668°
argument of perigee: 295.7503°
revolutions per day: 15.62897967
mean anomaly at epoch: 64.3168°
orbit number at epoch: 3867

The dashed part of the orbit path shows where the satellite is in the earth's shadow,  

DLR